Regional Weather Roundup
Issued by NWS Grand Forks, ND

Home | Current Version | Previous Version | Text Only | Print | Product List | Glossary Off
Versions: 1 2 3 4 5 6 7 8 9 10 11 12 13 14 15 16 17 18 19 20 21 22 23 24 25 26 27 28 29 30 31 32 33 34 35 36 37 38 39 40 41 42 43 44 45 46 47 48 49 50

000
ASUS43 KFGF 221431
RWRFGF
PRAIRIE TO PINES  WEATHER ROUNDUP
NATIONAL WEATHER SERVICE EASTERN NORTH DAKOTA/GRAND FORKS ND
800 AM CST MON JAN 22 2018

 **SATELLITE DATA USED TO AUGMENT SKY COVER AT AUTOMATED STATIONS**
 *****  WEATHER ACROSS EASTERN NORTH DAKOTA  *****

CITY           SKY/WX    TMP DP  RH WIND       PRES   REMARKS
GRAND FORKS    CLOUDY    25  21  85 NE13      30.07S WCI  14
GRAND FRKS AFB CLOUDY    25  21  86 NE8       30.08S WCI  16
DEVILS LAKE    CLOUDY    22  21  96 E8        30.05F WCI  12
FARGO          CLOUDY    26  24  92 N13       30.01F WCI  15
WAHPETON ARPT  CLOUDY    27  23  86 N10       29.98F WCI  17
$$

 ***** WEATHER ACROSS CENTRAL AND WESTERN NORTH DAKOTA  *****

CITY           SKY/WX    TMP DP  RH WIND       PRES   REMARKS
BISMARCK       FOG       19  17  92 W5        30.04R VSB 1/2 WCI  12
MINOT          FOG        9   6  88 N3        30.03R VSB 1/4
JAMESTOWN      CLOUDY    22  20  92 NE15      30.01S WCI   9
MINOT AFB      FOG        9   7  92 CALM      30.03R VSB 1/4
GARRISON         N/A      5   1  83 CALM      30.01R
WILLISTON      FAIR       5   1  83 CALM      30.02R
DICKINSON      FAIR      12   8  84 W6        29.96S WCI   3
HETTINGER      FAIR      12   8  84 NW3       29.98F
$$

 *****  OTHER AIRPORT OBSERVATIONS IN OUR AREA  *****

CITY           SKY/WX    TMP DP  RH WIND       PRES   REMARKS
WALHALLA       FAIR      21  21 100 N6        30.10F WCI  14
GRAFTON AIRPOR NOT AVBL
VALLEY CITY AR NOT AVBL
CANDO          CLOUDY    23  23 100 CALM      30.07S
CAVALIER APRT    N/A     21  21 100 N7        30.10S WCI  13
GWINNER          N/A     21  21 100 N15       30.00F FOG     WCI   8
SHEYENNE NWR     N/A     23  23 100 NE12      29.95S WCI  12
ROLLA          CLOUDY    21  21 100 SE3       30.05S FOG
 ***** THE ABOVE OBSERVATIONS ARE NON NWS ARE NOT QUALITY
       CONTROLLED AND MAY MIS-REPORT RAIN FOR SNOW...
$$

  *****  WEATHER ACROSS NORTHERN MINNESOTA  *****

CITY           SKY/WX    TMP DP  RH WIND       PRES   REMARKS
FLAG ISLAND    CLOUDY    18  16  93 NE8       30.10R WCI   7
WARROAD        CLOUDY    21  18  86 N8        30.09S WCI  12
ROSEAU         CLOUDY    23  18  80 NE9       30.08S WCI  13
HALLOCK        CLOUDY    25  19  80 NE6       30.10R WCI  18
THF RVR FALLS  CLOUDY    23  21  92 NE12      30.07R WCI  12
BAUDETTE       CLOUDY    21  19  92 E7        30.09R WCI  12
WASKISH        CLOUDY    21  21 100 NE5       30.07R WCI  15
CROOKSTON      MOCLDY    25  21  86 NE7       30.08R WCI  17
STEPHEN NDAWN    N/A     23  19  86 NE8         N/A  WCI  14
GREENBUSH NDAW   N/A     21  19  93 N8          N/A  WCI  12
$$
  *****  WEATHER ACROSS CENTRAL AND WEST MINNESOTA  *****

CITY           SKY/WX    TMP DP  RH WIND       PRES   REMARKS
FOSSTON        CLOUDY    23  21  93 NE8       30.03F FOG     WCI  14
BEMIDJI        CLOUDY    25  24  98 NE9       30.01S WCI  15
PARK RAPIDS    CLOUDY    26  23  88 NE7       29.96S WCI  18
ELBOW LAKE     CLOUDY    25  24  97 NE14G21   29.93S WCI  13
WADENA         CLOUDY    25  25 100 NE10G20   29.93F WCI  15
DETROIT LAKES  CLOUDY    27  27 100 NE9G16    29.99S WCI  17
MOORHEAD       CLOUDY    27  23  86 N13       30.02F WCI  16
FERGUS FALLS   CLOUDY    25  25 100 NE14      29.95F WCI  13
MORRIS MN      CLOUDY    27  25  93 N17G23    29.88F WCI  14
STAPLES        CLOUDY    25  25 100 NE9       29.93F WCI  15
$$
  *****  WEATHER ELSEWHERE ACROSS MINNESOTA  *****

CITY           SKY/WX    TMP DP  RH WIND       PRES   REMARKS
DULUTH         FRZ DRZL  24  22  91 E21       29.97S VSB 3/4 WCI   9
INTRNTL FALLS  CLOUDY    19  15  84 E6        30.09R WCI  11
ELY            CLOUDY    16  16 100 N5        30.03F WCI   9
CLOQUET        LGT SNOW  25  21  86 NE16G22   29.95F WCI  12
WHEATON        CLOUDY    27  23  86 N12       29.97S WCI  16
BRAINERD       CLOUDY    27  22  81 NE21G26   29.95S WCI  13
HIBBING        CLOUDY    24  22  91 NE7       29.99F WCI  16
ALEXANDRIA     CLOUDY    27  25  92 NE17G25   29.89F WCI  14
SAINT CLOUD    CLOUDY    29  26  89 NE14G22   29.85F WCI  18
MINNEAPOLIS    CLOUDY    32  29  88 N17G24    29.78F WCI  21
$$

  *****  WEATHER ACROSS SOUTH DAKOTA  *****

CITY           SKY/WX    TMP DP  RH WIND       PRES   REMARKS
SIOUX FALLS    LGT SNOW  26  25  96 N29G44    29.70R VSB 1   WCI  10
BROOKINGS      LGT SNOW  23  21  93 N24       29.78F FOG     WCI   7
WATERTOWN      CLOUDY    23  22  96 N22       29.85S FOG     WCI   8
HURON          CLOUDY    22  21  96 N28G35    29.89F BLWGSNOWWCI   4
SISSETON         N/A     25  24  96 N18G25    29.95S WCI  11
ABERDEEN       CLOUDY    23  21  92 N16       30.00R WCI  10
MITCHELL       CLOUDY    23  22  96 N29G38    29.84F BLWGSNOWWCI   6
PIERRE         CLOUDY    21  21 100 N13       29.97S FOG     WCI   9
MOBRIDGE       FOG       21  18  88 N9        29.97S VSB 1/2 WCI  11
RAPID CITY     FAIR      17  11  77 NW5       29.97S WCI  10
$$

  *****  SOME WEATHER IN NEARBY STATES *****

CITY           SKY/WX    TMP DP  RH WIND       PRES   REMARKS
GLASGOW MT     FAIR       8   5  87 SE8       29.96S WCI  -4
GREAT FALLS MT FAIR      34  19  54 SW20G30   29.96R WCI  23
CHEYENNE WY    FAIR      19   6  57 NW13G22   29.96R WCI   6
SCOTTSBLUFF NE FAIR      18   9  68 W12       30.01R WCI   5
OMAHA NE       CLOUDY    34  33  96 N14       29.43R FOG     WCI  25
DES MOINES IA  FOG       42  42 100 E5        29.36S VSB 1/4
DAVENPORT IA   FOG       42  41  96 NE9       29.52S VSB 3/4
CHICAGO IL     LGT RAIN  49  47  93 SE17      29.56F
EAU CLAIRE WI  CLOUDY    34  29  82 NE15G25   29.74F WCI  24
LA CROSSE WI   LGT RAIN  38  36  92 NE8G18    29.67F FOG
$$

  *****  SOME NATIONAL WEATHER *****

CITY           SKY/WX    TMP DP  RH WIND       PRES   REMARKS
LA GUARDIA NY  CLOUDY    39  35  86 E9        30.19R
RALEIGH NC     CLOUDY    45  41  86 CALM      30.20F
ATLANTA GA     CLOUDY    50  43  77 SE7       30.12R
NEW ORLEANS LA CLOUDY    63  63 100 S8        29.95F FOG
OKLAHOMA CITY  FAIR      36  24  62 W18G28    29.81R
ALBUQUERQUE NM FAIR      25  10  53 N12       30.21R WCI  14
SALT LAKE CITY FAIR      25  17  72 SE9       30.30S WCI  15
LOS ANGELES CA FAIR      47  29  49 CALM      30.25S
BOISE ID       CLOUDY    35  32  88 E14       30.17S
SEATTLE WA     LGT RAIN  41  39  93 SW15      30.13R FOG
$$

*** WEATHER ACROSS MANITOBA...SASKATCHEWAN AND ONTARIO ***
                ***ONTARIO***

CITY           SKY/WX    TMP DP  RH WIND       PRES   REMARKS
GERALDTON      FLURRIES  -2  -9  71 NE8       30.24S WCI -17
THUNDER BAY    CLOUDY    14   9  79 NE5       30.16F WCI   6
SIOUX LOOKOUT  FLURRIES   5   1  85 VRB3      30.13F
TORONTO        LGT RAIN  36  34  93 E12G18    30.04R FOG
BIG TROUT LK   CLOUDY   -20 -24  83 VRB2      30.40R
PICKLE LAKE    FLURRIES  -2  -8  78 E8        30.22F WCI -17
DRYDEN         FLURRIES  10   9  92 E8        30.11R WCI  -1
KENORA         MOCLDY    14  10  85 N8        30.09F WCI   3
$$
                *** MANITOBA***

CITY           SKY/WX    TMP DP  RH WIND       PRES   REMARKS
BRANDON        CLOUDY    21  19  93 E6        30.09R FOG     WCI  14
DAUPHIN        CLOUDY    16  14  93 NE7       30.13R WCI   6
ISLAND LAKE    PTCLDY    -8 -13  77 VRB2      30.28R
PILOT MOUND      N/A     21  19  93 SE1         N/A
THE PAS        CLOUDY    -8 -13  77 E7        30.18F WCI -22
THOMPSON       CLEAR    -22 -27  76 NE9       30.32F WCI -42
WINNIPEG       CLOUDY    21  16  79 E5        30.15S WCI  15
LYNN LAKE      CLEAR    -27 -33  75 NE2       30.25R
CHURCHILL      FLURRIES -18 -24  76 S5        30.53S WCI -31
GILLAM         CLOUDY   -20 -26  76 E5        30.44S WCI -33
$$
                ***SASKATCHEWAN***

CITY           SKY/WX    TMP DP  RH WIND       PRES   REMARKS
ESTEVAN        CRYSTALS   5   1  85 E9        30.01S VSB 1/2 WCI  -9
KINDERSLEY     PTCLDY    23  18  80 SW8       29.72S WCI  14
LLOYDMINSTER   MOCLDY    19  18  93 SE12      29.71F WCI   7
PRINCE ALBERT  LGT SNOW   9   5  85 E10       29.95F FOG     WCI  -6
REGINA         PTCLDY     7   5  92 SE13      29.92F WCI  -9
YORKTON        CLOUDY    21  21 100 SE9       30.00S FOG     WCI  11
N. BATTLEFORD  CLOUDY    19  18  93 SE22      29.78S WCI   3
LA RONGE       NOT AVBL
SASKATOON      MOCLDY    18  16  93 SE9       29.83F WCI   6
SWIFT CURRENT  PTCLDY    25  16  68 SW15      29.80S WCI  12
$$
NOTE: THESE ARE AUTOMATED STATIONS WITH LIMITED QUALITY CONTROL
      "FAIR" INDICATES FEW OR NO CLOUDS BELOW 12,000 FEET WITH NO
      SIGNIFICANT WEATHER AND/OR OBSTRUCTIONS TO VISIBILITY.
      SKY/WX - SKY CONDITION AND SIGNIFICANT WEATHER.
      TMP - AIR TEMPERATURE.    DP   - DEWPOINT TEMPERATURE.
      RH  - RELATIVE HUMIDITY.  PRES - PRESSURE.
      HX  - HEAT INDEX.         WCI  - WIND CHILL INDEX.
$




USA.gov is the U.S. government's official web portal to all federal, state and local government web resources and services.